Weather History for KHPN - September, 2013

Change the Weather History Date:

Saturday, September 7, 2013

  Actual Average Record
Temperature  
Mean Temperature 64 °F -  
Max Temperature 78 °F 74 °F 88 °F (1983)
Min Temperature 51 °F 58 °F 33 °F (1996)
Growing Degree Days 14 (Base 50)    
Moisture  
Dew Point 48 °F    
Average Humidity 58    
Maximum Humidity 89    
Minimum Humidity 30    
Precipitation  
Precipitation 0.00 in - - ()
Sea Level Pressure  
Sea Level Pressure 30.02 in    
Wind  
Wind Speed 5 mph (West)    
Max Wind Speed 10 mph    
Max Gust Speed -    
Visibility 10 miles    
Events Rain    
Averages and records for this station are not official NWS values.
T = Trace of Precipitation, MM = Missing Value Source: NWS Daily Summary

Daily Weather History Graph

Daily Weather History Graph

Search for Another Location

Airport or City:

Trip Planner

Search our weather history database for the weather conditions in past years. The results will help you decide how hot, cold, wet, or windy it might be!

Date:

Astronomy

Sep. 07, 2013 Rise Set
Actual Time 6:27 AM EDT 7:17 PM EDT
Civil Twilight 5:59 AM EDT 7:44 PM EDT
Nautical Twilight 5:26 AM EDT 8:18 PM EDT
Astronomical Twilight 4:52 AM EDT 8:52 PM EDT
Moon 8:40 AM EDT (9/7) 8:12 PM EDT (9/7)
Length of Visible Light 13h 45m
Length of Day
12h 49m
Waxing Crescent, 5% of the Moon is Illuminated
Sep 7
Waxing Crescent
Sep 12
First Quarter
Sep 19
Full
Sep 26
Last Quarter
Oct 4
New

Hourly Weather History & Observations

Time (EDT) Temp. Dew Point Humidity Pressure Visibility Wind Dir Wind Speed Gust Speed Precip Events Conditions
12:56 AM 52.0 °F 48.9 °F 89% 30.12 in 10.0 mi West 3.5 mph - N/A   Clear
1:56 AM 52.0 °F 48.0 °F 86% 30.12 in 10.0 mi West 3.5 mph - N/A   Clear
2:56 AM 55.0 °F 46.0 °F 72% 30.12 in 10.0 mi West 4.6 mph - N/A   Clear
3:56 AM 53.1 °F 45.0 °F 74% 30.12 in 10.0 mi West 4.6 mph - N/A   Clear
4:56 AM 53.1 °F 44.1 °F 71% 30.11 in 10.0 mi WNW 4.6 mph - N/A   Clear
5:56 AM 51.1 °F 45.0 °F 80% 30.11 in 10.0 mi WNW 5.8 mph - N/A   Clear
6:56 AM 54.0 °F 46.0 °F 75% 30.10 in 10.0 mi WNW 4.6 mph - N/A   Clear
7:56 AM 57.9 °F 46.0 °F 65% 30.09 in 10.0 mi West 4.6 mph - N/A   Clear
8:56 AM 62.1 °F 45.0 °F 53% 30.09 in 10.0 mi Variable 3.5 mph - N/A   Clear
9:56 AM 66.9 °F 46.0 °F 47% 30.09 in 10.0 mi West 4.6 mph - N/A   Clear
10:56 AM 70.0 °F 45.0 °F 41% 30.08 in 10.0 mi NW 10.4 mph - N/A   Clear
11:56 AM 72.0 °F 45.0 °F 38% 30.06 in 10.0 mi NW 8.1 mph - N/A   Clear
12:56 PM 73.9 °F 43.0 °F 33% 30.01 in 10.0 mi West 5.8 mph - N/A   Clear
1:56 PM 75.9 °F 43.0 °F 31% 29.99 in 10.0 mi Variable 4.6 mph - N/A   Partly Cloudy
2:56 PM 78.1 °F 44.1 °F 30% 29.96 in 10.0 mi Variable 6.9 mph - N/A   Scattered Clouds
3:56 PM 78.1 °F 44.1 °F 30% 29.95 in 10.0 mi Variable 4.6 mph - N/A   Clear
4:56 PM 75.9 °F 43.0 °F 31% 29.94 in 10.0 mi West 4.6 mph - N/A   Scattered Clouds
5:56 PM 73.0 °F 51.1 °F 46% 29.93 in 10.0 mi South 9.2 mph - N/A   Mostly Cloudy
6:56 PM 70.0 °F 52.0 °F 53% 29.93 in 10.0 mi South 4.6 mph - N/A   Mostly Cloudy
7:56 PM 68.0 °F 54.0 °F 61% 29.93 in 10.0 mi South 3.5 mph - N/A   Scattered Clouds
8:56 PM 66.0 °F 55.0 °F 68% 29.93 in 10.0 mi Calm Calm - N/A   Scattered Clouds
9:56 PM 64.9 °F 55.9 °F 73% 29.92 in 10.0 mi South 3.5 mph - N/A   Mostly Cloudy
10:56 PM 64.9 °F 57.0 °F 75% 29.91 in 10.0 mi Calm Calm - 0.00 in Rain Light Rain
11:56 PM 66.0 °F 55.9 °F 70% 29.89 in 10.0 mi South 3.5 mph - 0.00 in   Mostly Cloudy